Weather History for Hartford, CT

Change the Weather History Date:

Monday, November 19, 2012

  Actual Average Record
Temperature  
Mean Temperature 38 °F -  
Max Temperature 48 °F 50 °F 71 °F (1941)
Min Temperature 28 °F 31 °F 12 °F (1924)
Degree Days  
Heating Degree Days 27    
Moisture  
Dew Point 28 °F    
Average Humidity 72    
Maximum Humidity 85    
Minimum Humidity 54    
Precipitation  
Precipitation 0.00 in - - ()
Sea Level Pressure  
Sea Level Pressure 30.45 in    
Wind  
Wind Speed 5 mph (North)    
Max Wind Speed 12 mph    
Max Gust Speed -    
Visibility 10 miles    
Events      
Averages and records for this station are not official NWS values.
T = Trace of Precipitation, MM = Missing Value Source: NWS Daily Summary

Daily Weather History Graph

Daily Weather History Graph

Search for Another Location

Airport:

Trip Planner

Search our weather history database for the weather conditions in past years. The results will help you decide how hot, cold, wet, or windy it might be!

Date:

Astronomy

Nov. 19, 2012 Rise Set
Actual Time 6:45 AM EST 4:26 PM EST
Civil Twilight 6:15 AM EST 4:56 PM EST
Nautical Twilight 5:41 AM EST 5:30 PM EST
Astronomical Twilight 5:08 AM EST 6:03 PM EST
Moon 11:44 AM EST (11/19) 10:52 PM EST (11/19)
Length of Visible Light 10h 41m
Length of Day
9h 41m
Waxing Crescent, 40% of the Moon is Illuminated
Nov 19
Waxing Crescent
Nov 20
First Quarter
Nov 28
Full
Dec 6
Last Quarter
Dec 13
New

Hourly Weather History & Observations

Time (EST) Temp. Windchill Dew Point Humidity Pressure Visibility Wind Dir Wind Speed Gust Speed Precip Events Conditions
12:53 AM 33.1 °F 30.0 °F 26.1 °F 75% 30.61 in 10.0 mi North 3.5 mph - N/A   Clear
1:53 AM 30.9 °F 25.2 °F 26.1 °F 82% 30.60 in 10.0 mi North 5.8 mph - N/A   Clear
2:53 AM 30.9 °F 24.3 °F 26.1 °F 82% 30.58 in 10.0 mi NNE 6.9 mph - N/A   Clear
3:53 AM 28.9 °F 22.8 °F 25.0 °F 85% 30.56 in 9.0 mi NNE 5.8 mph - N/A   Clear
4:53 AM 30.0 °F 24.1 °F 25.0 °F 82% 30.56 in 10.0 mi NNE 5.8 mph - N/A   Clear
5:53 AM 30.0 °F 24.1 °F 25.0 °F 82% 30.55 in 7.0 mi NNE 5.8 mph - N/A   Clear
6:53 AM 28.9 °F 22.8 °F 25.0 °F 85% 30.55 in 8.0 mi NNE 5.8 mph - N/A   Clear
7:53 AM 30.0 °F 22.4 °F 26.1 °F 85% 30.55 in 8.0 mi North 8.1 mph - N/A   Clear
8:53 AM 34.0 °F 27.2 °F 27.0 °F 75% 30.53 in 10.0 mi NNE 8.1 mph - N/A   Scattered Clouds
9:26 AM 35.6 °F 29.9 °F 28.4 °F 75% 30.52 in 10.0 mi NNE 6.9 mph - N/A   Mostly Cloudy
9:53 AM 37.9 °F 31.5 °F 28.0 °F 68% 30.51 in 10.0 mi North 9.2 mph - N/A   Scattered Clouds
10:27 AM 39.2 °F 32.0 °F 28.4 °F 65% 30.50 in 10.0 mi NNE 11.5 mph - N/A   Mostly Cloudy
10:53 AM 42.1 °F 37.1 °F 28.9 °F 60% 30.49 in 10.0 mi North 8.1 mph - N/A   Scattered Clouds
11:53 AM 44.1 °F 39.5 °F 30.0 °F 58% 30.45 in 10.0 mi NNW 8.1 mph - N/A   Clear
12:53 PM 46.9 °F - 30.9 °F 54% 30.42 in 10.0 mi NNW 6.9 mph - N/A   Clear
1:53 PM 48.0 °F - 32.0 °F 54% 30.39 in 10.0 mi North 6.9 mph - N/A   Clear
2:53 PM 48.0 °F - 32.0 °F 54% 30.38 in 10.0 mi North 5.8 mph - N/A   Clear
3:53 PM 48.0 °F - 32.0 °F 54% 30.37 in 10.0 mi North 5.8 mph - N/A   Clear
4:53 PM 46.0 °F 44.8 °F 30.9 °F 56% 30.35 in 10.0 mi North 3.5 mph - N/A   Clear
5:53 PM 44.1 °F 42.5 °F 30.9 °F 60% 30.35 in 10.0 mi North 3.5 mph - N/A   Clear
6:53 PM 39.0 °F - 30.0 °F 70% 30.34 in 10.0 mi Calm Calm - N/A   Clear
7:53 PM 35.1 °F - 30.9 °F 85% 30.33 in 10.0 mi Calm Calm - N/A   Clear
8:53 PM 34.0 °F - 28.9 °F 82% 30.32 in 10.0 mi Calm Calm - N/A   Clear
9:53 PM 34.0 °F 31.0 °F 30.0 °F 85% 30.30 in 10.0 mi NNE 3.5 mph - N/A   Clear
10:53 PM 33.1 °F 30.0 °F 28.9 °F 85% 30.29 in 10.0 mi NNE 3.5 mph - N/A   Clear
11:53 PM 32.0 °F - 28.0 °F 85% 30.28 in 10.0 mi Calm Calm - N/A   Clear